Hebron, KY

10:10 AM EST on February 11, 2016 (GMT -0500)
Cincinnati-Northern KY International

Weather History for KCVG - December, 2011

Change the Weather History Date:

Friday, December 9, 2011

  Actual Average Record
Temperature  
Mean Temperature 35 °F 36 °F  
Max Temperature 44 °F 43 °F 66 °F (1946)
Min Temperature 26 °F 28 °F -8 °F (1917)
Degree Days  
Heating Degree Days 30 29  
Month to date heating degree days 232 251  
Since 1 July heating degree days 1096 1211  
Cooling Degree Days 0 0  
Month to date cooling degree days 0 0  
Year to date cooling degree days 1349 1121  
Moisture  
Dew Point 28 °F    
Average Humidity 74    
Maximum Humidity 92    
Minimum Humidity 55    
Precipitation  
Precipitation T in 0.12 in 1.50 in (1952)
Month to date precipitation 3.20 1.01  
Year to date precipitation 69.96 40.16  
Snow  
Snow T in 0.10 in 4.40 in (1961)
Month to date snowfall T 0.9  
Since 1 July snowfall 0.4 1.7  
Snow Depth 0.00 in    
Sea Level Pressure  
Sea Level Pressure 30.29 in    
Wind  
Wind Speed 7 mph (West)    
Max Wind Speed 16 mph    
Max Gust Speed 20 mph    
Visibility 8 miles    
Events Rain , Snow    
T = Trace of Precipitation, MM = Missing Value Source: NWS Daily Summary

Daily Weather History Graph

Daily Weather History Graph

Search for Another Location

Airport or City:

Trip Planner

Search our weather history database for the weather conditions in past years. The results will help you decide how hot, cold, wet, or windy it might be!

Date:

Astronomy

Dec. 09, 2011 Rise Set
Actual Time 7:45 AM EST 5:16 PM EST
Civil Twilight 7:15 AM EST 5:45 PM EST
Nautical Twilight 6:42 AM EST 6:19 PM EST
Astronomical Twilight 6:10 AM EST 6:51 PM EST
Moon 4:39 PM EST (12/9) 6:52 AM EST (12/9)
Length of Visible Light 10h 30m
Length of Day
9h 30m
Waxing Gibbous, 99% of the Moon is Illuminated
Dec 9
Waxing Gibbous
Dec 10
Full
Dec 17
Last Quarter
Dec 24
New
Jan 1
First Quarter

Hourly Weather History & Observations

Time (EST) Temp. Windchill Dew Point Humidity Pressure Visibility Wind Dir Wind Speed Gust Speed Precip Events Conditions
12:52 AM 30.0 °F 25.2 °F 25.0 °F 82% 30.21 in 10.0 mi SSW 4.6 mph - N/A   Scattered Clouds
1:52 AM 28.0 °F 24.2 °F 24.1 °F 85% 30.22 in 10.0 mi South 3.5 mph - N/A   Partly Cloudy
2:52 AM 28.9 °F 23.9 °F 24.1 °F 82% 30.22 in 10.0 mi SSW 4.6 mph - N/A   Mostly Cloudy
3:52 AM 28.9 °F 25.2 °F 24.1 °F 82% 30.22 in 10.0 mi SSW 3.5 mph - N/A   Scattered Clouds
4:52 AM 28.9 °F 22.8 °F 24.1 °F 82% 30.21 in 10.0 mi South 5.8 mph - N/A   Scattered Clouds
5:52 AM 28.0 °F 21.7 °F 24.1 °F 85% 30.22 in 10.0 mi South 5.8 mph - N/A   Mostly Cloudy
6:52 AM 28.9 °F 23.9 °F 24.1 °F 82% 30.24 in 10.0 mi SSW 4.6 mph - N/A   Partly Cloudy
7:52 AM 30.0 °F 24.1 °F 25.0 °F 82% 30.25 in 10.0 mi South 5.8 mph - N/A   Overcast
8:52 AM 30.9 °F 25.2 °F 26.1 °F 82% 30.25 in 10.0 mi SSW 5.8 mph - N/A   Overcast
9:52 AM 34.0 °F 29.8 °F 28.0 °F 79% 30.27 in 10.0 mi SSW 4.6 mph - N/A   Mostly Cloudy
10:52 AM 39.0 °F 34.0 °F 28.0 °F 65% 30.27 in 10.0 mi WSW 6.9 mph - N/A   Mostly Cloudy
11:52 AM 39.9 °F 33.9 °F 28.0 °F 63% 30.25 in 10.0 mi WSW 9.2 mph - N/A   Overcast
12:52 PM 43.0 °F 37.7 °F 28.9 °F 58% 30.23 in 10.0 mi SW 9.2 mph - N/A   Overcast
1:52 PM 43.0 °F 37.7 °F 30.0 °F 60% 30.23 in 10.0 mi West 9.2 mph - N/A   Overcast
2:52 PM 41.0 °F 34.7 °F 27.0 °F 57% 30.25 in 10.0 mi West 10.4 mph - N/A   Overcast
3:52 PM 39.0 °F 31.8 °F 30.9 °F 73% 30.26 in 10.0 mi WNW 11.5 mph - 0.00 in Rain Light Rain
4:35 PM 37.4 °F 30.8 °F 33.8 °F 87% 30.27 in 4.0 mi NW 9.2 mph - 0.00 in Rain , Snow Light Snow
4:52 PM 36.0 °F 28.5 °F 33.1 °F 89% 30.30 in 4.0 mi WNW 10.4 mph - 0.00 in Rain , Snow Light Snow
5:26 PM 35.6 °F 29.2 °F 33.8 °F 93% 30.29 in 4.0 mi NW 8.1 mph - 0.00 in Rain , Snow Light Rain
5:52 PM 36.0 °F 30.3 °F 33.1 °F 89% 30.32 in 5.0 mi WNW 6.9 mph - 0.00 in Snow Light Snow
6:11 PM 35.6 °F 29.2 °F 32.0 °F 87% 30.30 in 5.0 mi NW 8.1 mph - 0.00 in Snow Light Snow
6:16 PM 35.6 °F 29.2 °F 32.0 °F 87% 30.30 in 5.0 mi NW 8.1 mph - 0.00 in Snow Light Snow
6:44 PM 33.8 °F 24.3 °F 30.2 °F 87% 30.32 in 4.0 mi NW 13.8 mph - 0.00 in Snow Light Snow
6:52 PM 34.0 °F 25.0 °F 28.9 °F 82% 30.34 in 6.0 mi NW 12.7 mph - 0.00 in   Haze
7:26 PM 33.8 °F 28.6 °F 30.2 °F 87% 30.33 in 8.0 mi NNW 5.8 mph - 0.00 in   Overcast
7:52 PM 34.0 °F 27.2 °F 28.9 °F 82% 30.36 in 8.0 mi NNW 8.1 mph - 0.00 in   Overcast
8:52 PM 33.1 °F 26.1 °F 28.9 °F 85% 30.37 in 7.0 mi NNW 8.1 mph - N/A   Overcast
9:52 PM 32.0 °F 25.6 °F 28.9 °F 88% 30.39 in 7.0 mi NW 6.9 mph - N/A   Overcast
10:13 PM 33.8 °F 27.0 °F 28.4 °F 81% 30.37 in 7.0 mi NW 8.1 mph - N/A   Overcast
10:38 PM 32.0 °F 21.2 °F 24.8 °F 75% 30.38 in 10.0 mi NW 16.1 mph - N/A   Mostly Cloudy
10:52 PM 32.0 °F 23.0 °F 25.0 °F 75% 30.40 in 10.0 mi NNW 11.5 mph - N/A   Mostly Cloudy
11:42 PM 30.2 °F 23.4 °F 24.8 °F 80% 30.40 in 10.0 mi NNW 6.9 mph - N/A   Overcast
11:52 PM 30.0 °F 21.7 °F 23.0 °F 75% 30.42 in 10.0 mi NNW 9.2 mph - N/A   Mostly Cloudy